Location: Bagnolo San Vito
(45.0833°N, 10.8833°E)
Time: 00:01:47
(UTC+00:00)

Cosmos 1992 Rocket - Pass Details

Date: 03 March 2021
Orbit: 759 x 765 km, 74.0° (Epoch: 17 April)

Event Time Altitude Azimuth Distance (km) Brightness Sun altitude
Rises 17:46:46 0° 187° (S) 3,215 7.3 -7.9°
Reaches altitude 10° 17:49:10 10° 183° (S) 2,294 6.5 -8.3°
Maximum altitude 17:54:15 56° 106° (ESE) 905 4.1 -9.2°
Drops below altitude 10° 17:59:22 10° 29° (NNE) 2,307 6.2 -10.1°
Sets 18:01:46 0° 25° (NNE) 3,237 7.0 -10.5°
